Regional Weather Roundup
Issued by NWS

Home | Current Version | Previous Version | Text Only | Print | Product List | Glossary Off
Versions: 1 2 3 4 5 6 7 8 9 10 11 12 13 14 15 16 17 18 19 20 21 22 23 24 25 26 27 28 29 30 31 32 33 34 35 36 37 38 39 40 41 42 43 44 45 46 47 48 49 50

000
ASUS43 KIND 051159
RWRIN

WEATHER ROUNDUP FOR INDIANA
NATIONAL WEATHER SERVICE INDIANAPOLIS IN
700 AM EST THU MAR 05 2015

NOTE: "FAIR" INDICATES FEW OR NO CLOUDS BELOW 12,000 FEET WITH NO
SIGNIFICANT WEATHER AND/OR OBSTRUCTIONS TO VISIBILITY.

* - STATION DOES NOT REPORT WEATHER SUCH AS PRECIPITATION OR FOG.

+ - STATION NOT QUALITY CONTROLLED BY THE NATIONAL WEATHER SERVICE.
    USE DATA WITH CAUTION...ESPECIALLY DEWPOINT AND RELATIVE
    HUMIDITY OBSERVATIONS.

INZ001>003-010>013-019-020-051300-
NORTHWEST INDIANA

CITY           SKY/WX    TMP DP  RH WIND       PRES   REMARKS
GARY /AIRPORT/ CLOUDY    14  -2  48 W12       30.40R WCI   0
VALPARAISO     NOT AVBL

$$

LMZ046-743>745-051300-
SOUTHERN LAKE MICHIGAN

STATION/POSITION TIME  TEMP WIND        PRES
                       AIR  DIR/SP/G
                 (UTC) (F)  (DEG/KT/KT) (MB)
MICHIGAN CITY    1100   16  320/ 10/ 12   N/A

$$

INZ004-005-014>016-021>024-051300-
NORTH CENTRAL INDIANA

CITY           SKY/WX    TMP DP  RH WIND       PRES   REMARKS
ELKHART        CLEAR      7   0  72 CALM      30.37
GOSHEN         PTCLDY     5  -3  69 CALM      30.35R
6HR MIN TEMP:   3; 6HR MAX TEMP:  17;

SOUTH BEND     MOCLDY    12   6  77 MISG      30.37R
6HR MIN TEMP:  10; 6HR MAX TEMP:  18;


$$

INZ006>009-017-018-025>027-051300-
NORTHEAST INDIANA

CITY           SKY/WX    TMP DP  RH WIND       PRES   REMARKS
ANGOLA *+      CLEAR      0 -13  55 CALM      30.32R
FORT WAYNE     CLOUDY    14   2  58 N5        30.36R WCI   6
6HR MIN TEMP:  13; 6HR MAX TEMP:  18;


$$

INZ028-029-035-036-043>045-051>053-051300-
WEST CENTRAL INDIANA

CITY           SKY/WX    TMP DP  RH WIND       PRES   REMARKS
CRAWFORDSVL +  CLOUDY    10  -2  56 NW5       30.36S WCI   2
6HR MIN TEMP:  10; 6HR MAX TEMP:  15;

GREENCASTLE +  CLOUDY    14   1  57 N8        30.35F WCI   3
LAFAYETTE      MOCLDY     7   0  73 W3        30.38R
6HR MIN TEMP:   6; 6HR MAX TEMP:  15;

TERRE HAUTE    CLOUDY    14   4  64 NW8       30.39F WCI   3
6HR MIN TEMP:  14; 6HR MAX TEMP:  18;


$$

INZ030>032-037>040-046>048-054>057-064-065-051300-
CENTRAL INDIANA

CITY           SKY/WX    TMP DP  RH WIND       PRES   REMARKS
COLUMBUS       MOCLDY    19   9  63 N10       30.34  WCI   8
GREENWOOD *+   CLOUDY    18   5  57 N8        30.34R WCI   7
INDIANAPOLIS   CLOUDY    16   6  65 N12       30.32R WCI   3
6HR MIN TEMP:  16; 6HR MAX TEMP:  19;

-EAGLE CREEK   CLOUDY    15   6  67 N9        30.33R WCI   3
6HR MIN TEMP:  15; 6HR MAX TEMP:  18;

KOKOMO *+        N/A    N/A N/A N/A MISG        N/A
MT COMFORT *+  CLOUDY    16   1  53 N12       30.33F WCI   3
SHELBYVILLE    CLOUDY    19   9  65 N12       30.32R WCI   7
6HR MIN TEMP:  19; 6HR MAX TEMP:  21;


$$

INZ033-034-041-042-049-050-058-059-051300-
EAST CENTRAL INDIANA

CITY           SKY/WX    TMP DP  RH WIND       PRES   REMARKS
MUNCIE         CLOUDY    16   6  65 NE9       30.31R WCI   4
6HR MIN TEMP:  16; 6HR MAX TEMP:  19;


$$

INZ060-061-067>069-081>083-085>088-051300-
SOUTHWEST INDIANA

CITY           SKY/WX    TMP DP  RH WIND       PRES   REMARKS
EVANSVILLE     CLOUDY    20   7  57 N9        30.38R WCI   9
6HR MIN TEMP:  20; 6HR MAX TEMP:  21;

HUNTINGBURG *+ CLOUDY    18   7  62 N10G17    30.34F WCI   6
6HR MIN TEMP:  18; 6HR MAX TEMP:  19;


$$

INZ062-063-066-070>080-084-089>092-051300-
SOUTH CENTRAL AND SOUTHEAST INDIANA

CITY           SKY/WX    TMP DP  RH WIND       PRES   REMARKS
BLOOMINGTON    CLOUDY    16   6  65 N9        30.33F WCI   4
6HR MIN TEMP:  16; 6HR MAX TEMP:  19;

SEYMOUR +      CLOUDY    21  10  63 N12       30.34R WCI   9

$$




USA.gov is the U.S. government's official web portal to all federal, state and local government web resources and services.